Theta_e
314 317 317 318 318 317 317 319 321 322 321 318 315 316 316 315 314 313 314 309 306 311 314 313 313 313 314 314 311 310 310 310 311 312 312 313 313 313 314 314 314 314 315 314 314 315 315 315 315 315 316 316 316 316 317 317 316 316 316 316 318 319 322 324 325 325 325 325 324 323 323 323 323 323 324 324 324 324 324 325 326 327 326 327 327 326
315 318 318 319 318 316 317 318 318 318 316 315 315 315 315 315 315 313 311 310 307 310 315 314 312 313 313 313 311 309 309 309 310 311 312 313 313 313 313 314 314 314 315 315 314 314 315 315 315 315 315 316 316 316 316 316 315 315 315 315 315 317 319 321 322 324 324 323 323 323 322 322 322 322 323 323 323 323 322 323 324 324 325 326 326 326
316 318 319 319 316 315 317 316 316 316 315 316 315 315 317 315 314 312 310 311 309 310 316 314 311 313 313 312 311 308 308 310 311 312 313 314 313 313 314 314 314 314 314 315 315 315 315 315 315 315 315 315 315 315 315 315 315 315 315 314 314 315 316 318 320 321 322 322 322 322 322 322 322 322 322 322 322 322 322 322 323 323 324 325 326 326
317 318 318 315 314 316 318 316 316 316 315 316 315 317 318 313 314 315 311 311 311 310 313 313 311 312 312 312 312 310 309 310 312 312 312 313 313 313 314 314 314 315 315 315 315 315 315 315 315 315 314 314 314 314 314 314 314 314 314 313 313 314 314 315 317 318 319 321 322 322 322 323 323 322 322 322 322 321 321 322 323 324 325 326 326 325
318 317 315 313 314 317 317 317 318 318 318 316 315 317 317 313 313 313 313 313 313 311 310 311 313 315 315 315 314 311 308 308 310 311 311 312 314 314 313 314 315 315 315 316 316 316 315 315 315 315 314 314 314 314 313 314 313 313 313 313 312 313 313 313 314 316 318 320 321 322 323 323 324 323 322 322 320 320 321 322 322 324 325 327 327 325
317 313 313 315 316 317 316 317 318 320 321 318 317 317 315 315 312 311 314 313 314 316 311 310 315 319 322 320 316 314 312 311 309 307 310 313 314 314 314 315 316 316 316 317 316 316 316 315 315 315 315 315 314 314 314 313 313 313 313 313 313 312 312 312 313 314 316 318 319 320 321 322 322 321 319 317 317 318 320 322 322 323 324 326 326 325
314 311 314 316 316 317 317 316 316 318 320 320 319 316 313 315 313 313 314 312 316 318 310 309 314 318 320 318 318 318 315 315 310 306 308 312 314 314 315 316 316 316 316 316 317 316 316 316 315 315 315 315 315 314 314 313 313 313 313 313 313 313 312 312 312 313 314 315 317 318 318 319 319 318 316 314 315 317 319 321 322 322 323 323 323 323
311 312 314 316 316 317 317 316 315 317 320 322 319 313 313 314 314 315 314 313 317 318 312 311 313 314 314 314 317 316 314 316 315 311 309 310 314 315 315 316 316 316 316 316 316 316 316 316 315 315 315 315 314 314 314 314 313 313 313 313 313 313 313 312 312 312 312 314 315 316 316 317 318 317 316 315 317 319 321 323 324 324 324 323 323 323
310 314 315 315 316 316 316 317 315 315 319 320 314 312 314 314 315 316 314 313 314 314 315 315 312 314 316 318 317 313 313 315 316 316 313 310 313 315 314 316 316 316 316 316 316 316 316 316 315 315 315 314 314 314 314 314 314 313 313 313 313 313 313 313 313 312 312 313 313 314 315 316 316 317 316 318 320 322 324 325 325 325 325 324 324 323
309 312 313 314 316 315 317 317 314 316 317 313 311 313 315 316 316 316 315 314 314 313 316 317 313 314 318 321 318 313 313 314 314 316 313 310 313 315 314 315 315 315 316 315 316 316 316 316 316 316 315 314 314 314 314 314 314 314 313 313 313 313 313 313 313 313 313 313 313 314 315 315 316 317 318 320 321 324 326 326 326 326 326 325 324 323
308 309 310 313 314 314 314 312 311 315 313 308 312 315 315 317 317 317 318 316 315 316 315 314 313 313 316 319 317 314 314 315 314 315 313 310 313 315 315 316 315 315 314 314 314 314 314 314 314 315 315 315 315 314 314 314 314 314 314 313 313 313 313 313 313 314 313 313 314 313 314 315 315 316 318 320 322 324 326 325 325 325 326 326 325 323
307 310 310 310 311 310 311 310 309 311 309 311 317 316 314 317 316 318 322 317 315 318 313 310 310 313 316 317 316 314 313 313 312 314 316 312 312 315 315 315 314 313 313 313 313 313 313 313 313 314 314 315 315 315 314 314 314 314 314 313 313 313 313 313 313 313 313 314 314 314 315 315 315 316 317 319 321 322 323 323 323 325 326 326 326 324
310 311 309 308 309 310 312 312 311 310 310 313 316 314 315 318 316 317 319 316 317 317 312 309 309 311 314 316 316 313 312 312 308 308 312 310 310 314 314 313 312 312 312 312 312 313 313 313 313 313 314 314 314 314 314 314 314 314 314 314 314 314 313 313 313 313 313 314 314 314 315 315 316 317 317 318 319 320 321 322 323 325 326 326 326 325
313 312 309 309 309 310 312 312 311 311 311 312 312 314 317 317 317 318 316 316 319 317 310 307 309 313 316 316 315 314 312 312 308 306 309 309 309 312 312 312 312 312 312 312 312 312 312 313 313 313 314 314 314 314 314 314 314 314 314 314 314 314 314 313 313 313 313 313 314 314 315 315 316 317 317 317 318 319 320 322 323 325 326 327 327 325
316 314 311 311 310 311 312 312 314 313 311 312 313 315 317 317 319 320 318 317 318 316 309 307 311 318 320 316 313 310 308 309 309 309 310 309 310 311 311 312 312 312 313 312 312 312 312 313 313 313 314 314 314 314 313 313 314 314 314 314 314 314 314 313 313 313 313 313 314 314 315 315 316 317 317 318 319 320 321 323 324 326 327 327 327 326
316 314 310 308 307 310 311 311 313 314 312 313 315 315 316 318 322 320 316 316 317 317 312 309 314 318 318 315 311 307 307 307 307 309 311 311 311 310 310 312 312 313 313 313 313 313 313 313 313 313 313 314 314 313 313 313 313 314 314 314 314 314 313 313 313 313 313 313 313 314 315 315 317 318 318 319 320 321 322 324 326 327 327 328 327 327
314 312 309 308 307 308 310 310 311 312 314 313 313 313 313 315 320 318 312 311 313 316 316 312 314 315 314 314 313 311 311 311 309 308 308 310 311 310 311 312 312 313 313 313 313 313 313 313 313 313 313 313 314 312 313 312 313 313 313 313 313 313 313 313 313 313 313 313 313 313 314 315 317 318 319 320 320 321 323 325 326 328 328 327 327 326
314 311 309 310 310 307 307 309 308 308 312 313 313 314 311 311 318 320 315 313 312 315 318 315 312 314 315 317 318 315 313 314 313 309 306 308 309 309 310 311 311 311 312 312 312 312 313 313 312 313 313 313 313 313 313 313 313 313 313 314 314 313 314 314 313 313 313 312 313 313 314 315 316 318 319 320 322 323 325 326 327 328 327 327 326 325
314 315 310 309 311 308 307 310 310 308 307 310 313 313 313 315 317 316 317 317 314 314 318 317 312 311 312 316 318 315 312 315 314 311 309 308 308 308 310 311 311 310 311 311 312 312 312 312 312 312 313 313 313 313 313 313 313 313 313 313 313 313 314 314 314 314 313 313 313 313 315 316 317 318 320 321 323 324 326 326 327 327 327 326 325 324
314 319 314 308 309 310 309 310 312 311 308 308 310 310 312 316 316 315 315 316 317 316 318 320 317 314 313 314 316 314 313 314 313 313 312 308 306 308 310 311 311 311 312 311 312 312 312 312 312 312 313 313 313 312 312 312 312 312 312 312 312 312 312 312 313 313 314 314 314 315 315 316 318 320 321 322 324 324 325 325 326 327 327 327 325 324
312 316 315 310 308 309 312 312 312 313 310 309 312 312 311 311 313 316 314 313 317 319 319 318 317 319 318 313 312 313 313 313 313 314 312 308 307 309 309 310 311 311 312 311 312 312 312 312 313 313 313 313 312 312 311 311 311 311 312 311 312 312 311 311 312 311 312 313 314 315 315 316 318 319 321 322 322 323 323 323 324 325 326 327 326 324
313 313 313 311 309 310 313 312 310 312 312 311 312 312 311 312 313 315 313 311 313 316 319 317 313 318 320 313 311 312 313 312 310 309 308 307 308 310 310 310 311 311 311 311 312 312 312 312 312 313 312 312 311 311 311 311 312 312 312 312 312 312 312 312 311 311 311 311 312 313 313 314 315 315 317 317 318 319 320 320 322 323 324 326 325 324
313 313 312 312 312 313 311 306 303 307 311 312 312 312 313 313 313 316 318 316 312 311 314 314 312 315 316 313 311 310 308 307 306 305 305 307 308 310 310 310 311 311 311 311 311 312 312 312 312 312 312 311 311 311 311 311 312 312 312 312 312 312 312 312 311 311 311 311 311 311 312 312 312 312 313 313 313 314 316 319 323 325 326 326 325 325
311 313 312 312 313 315 314 308 304 305 309 311 313 312 312 313 316 322 325 320 315 313 312 312 313 314 312 310 306 304 303 304 306 307 306 307 309 310 310 311 311 311 311 311 311 311 311 311 311 311 311 311 311 311 311 311 312 312 312 312 312 313 313 312 312 312 311 311 310 310 310 311 311 311 311 311 312 314 317 321 325 327 326 324 325 326
314 314 312 312 313 315 316 313 311 309 309 312 315 313 312 315 316 317 317 314 313 316 316 314 315 313 313 311 306 305 306 306 307 307 306 307 310 310 310 311 311 311 311 311 311 311 311 311 311 311 311 311 311 311 311 311 312 312 312 312 312 312 313 313 312 312 312 311 311 310 310 309 310 311 311 311 314 317 320 321 323 325 324 324 326 325
316 314 312 313 314 314 314 314 314 313 310 312 316 313 312 314 312 312 314 313 312 315 314 314 314 312 312 312 310 310 312 313 310 308 306 308 310 310 311 311 311 311 311 311 311 311 311 311 311 311 311 311 311 311 311 311 311 312 312 312 312 312 313 313 313 312 312 312 311 310 309 309 310 310 310 311 313 316 318 318 320 323 324 324 326 325
316 313 311 314 313 313 314 315 315 314 312 313 314 312 311 310 310 314 317 315 313 313 313 312 313 314 313 312 314 315 316 318 313 307 307 310 309 310 311 310 311 311 311 311 311 311 312 311 311 311 311 311 311 311 311 311 311 312 312 312 312 312 313 313 313 312 312 312 311 311 310 309 309 309 310 314 316 317 319 321 323 325 324 324 324 323
318 313 312 314 313 314 318 317 315 314 312 313 312 311 311 310 311 314 315 313 313 314 314 312 312 313 313 313 318 321 320 318 311 305 307 311 310 310 310 310 311 312 311 312 312 312 312 311 311 311 311 311 311 311 311 311 311 311 311 312 312 312 313 313 313 313 312 312 311 311 310 309 309 310 311 315 320 321 321 321 322 322 322 322 322 321
315 313 312 313 312 316 318 316 314 314 313 312 313 312 311 310 311 313 313 312 313 313 313 314 315 313 311 312 316 319 318 315 310 307 309 310 309 309 309 310 311 311 311 312 311 311 312 311 312 312 311 312 311 311 311 311 311 311 311 311 311 312 312 313 313 313 312 312 311 310 310 309 310 313 314 314 317 318 318 318 319 319 320 320 321 320
312 313 313 312 312 314 314 312 312 314 313 313 313 312 311 310 310 312 312 311 312 313 313 315 317 314 312 312 313 313 312 310 309 309 309 309 309 309 309 310 311 311 311 311 311 311 311 311 311 311 311 312 311 312 311 311 311 311 311 312 311 311 312 312 313 313 313 313 312 310 310 309 310 312 314 316 318 319 320 320 320 321 321 321 321 320
310 313 312 311 312 310 310 311 312 312 313 313 312 311 311 311 310 310 311 311 312 312 311 313 314 312 311 310 309 308 308 308 308 307 308 309 309 310 310 311 311 311 311 311 311 311 311 311 311 311 311 312 311 312 312 311 312 312 312 312 311 311 312 312 312 313 313 313 313 311 310 310 310 311 312 315 317 318 320 320 320 320 319 319 319 319
311 312 310 311 312 309 308 312 313 312 313 312 312 312 311 311 310 310 311 311 312 312 312 312 312 312 311 309 307 306 307 306 307 308 309 310 310 311 311 311 311 312 311 312 312 311 311 311 311 311 311 312 312 312 312 312 312 312 312 312 311 311 311 311 312 313 313 313 313 312 311 310 311 312 313 314 316 316 317 317 316 316 317 317 317 317
314 313 311 311 313 309 307 310 313 313 313 312 312 312 311 310 311 311 311 311 311 311 312 311 311 314 314 311 310 311 309 307 307 309 310 311 310 311 311 311 312 312 311 312 312 311 311 311 311 312 311 312 312 312 312 311 311 311 311 311 311 311 311 311 312 312 313 313 312 313 312 311 311 312 313 313 314 315 314 313 313 315 316 315 315 313
315 314 312 313 314 311 308 310 313 314 313 312 313 312 310 310 311 311 311 311 310 310 311 311 312 315 315 312 312 313 311 309 310 310 311 311 311 311 311 311 312 312 311 312 311 311 312 311 311 312 311 312 312 312 312 311 311 311 311 311 311 311 311 311 311 312 312 313 312 313 313 312 312 311 312 312 312 313 313 313 314 315 314 312 311 310
313 313 314 315 313 310 309 312 314 313 312 313 316 315 311 310 311 311 311 311 310 310 311 311 311 312 311 309 309 310 310 310 310 310 311 311 311 311 311 311 311 311 311 311 311 311 312 311 312 312 311 311 312 311 312 311 311 311 311 311 311 311 311 311 311 311 312 312 312 312 312 312 312 312 312 312 312 313 314 314 315 314 312 310 310 309
310 311 314 314 311 309 311 312 313 313 312 313 316 314 311 309 310 311 311 311 310 310 310 310 310 310 308 306 306 308 309 309 309 310 310 311 311 311 311 311 311 311 311 311 311 311 311 311 311 311 311 311 311 312 312 311 311 311 310 311 311 311 311 311 311 311 311 311 312 312 312 312 312 312 312 312 313 314 314 315 314 312 310 309 309 308
310 311 312 311 309 310 312 312 313 313 312 312 313 311 309 309 310 310 311 311 310 309 309 309 309 310 309 306 306 307 308 308 309 310 310 310 311 311 311 311 311 311 311 311 311 311 311 311 311 311 311 311 310 311 311 310 311 311 310 311 311 311 311 311 311 311 311 311 311 311 311 311 311 312 312 313 313 314 313 313 311 310 309 309 308 308
310 311 311 311 310 311 313 313 313 313 312 311 313 313 308 307 308 309 311 312 311 308 307 308 309 310 308 306 305 306 307 309 310 310 310 311 311 311 311 311 311 311 311 310 311 311 311 311 311 311 311 311 311 311 311 311 311 311 311 311 311 311 311 311 311 311 310 311 311 311 311 311 311 311 311 312 312 312 312 311 310 309 309 309 308 307
311 311 312 312 310 310 312 312 311 312 310 312 316 315 308 306 307 308 310 313 312 308 306 307 309 308 306 304 305 306 309 311 310 309 310 311 311 311 311 311 311 310 311 310 311 311 311 311 311 311 311 311 311 311 311 311 311 311 311 311 311 311 311 311 311 310 310 310 310 310 310 310 310 311 311 311 311 311 311 310 310 309 309 308 307 305
311 310 311 311 309 309 311 311 311 311 310 313 316 311 306 306 308 310 313 314 310 307 307 307 307 307 306 305 305 307 310 311 311 310 311 311 310 310 311 311 310 311 311 311 311 311 311 311 311 311 311 310 311 311 311 311 311 311 311 311 311 311 310 310 310 309 309 309 309 310 310 310 310 310 310 310 310 310 310 310 309 309 308 307 305 302
310 309 310 310 309 309 310 311 312 311 312 316 313 305 304 308 310 311 315 313 309 308 309 308 307 308 308 306 305 307 308 310 310 311 311 311 310 310 311 311 311 311 310 311 311 310 310 310 310 310 310 310 310 310 310 310 310 310 310 310 310 310 310 310 309 309 309 309 309 309 309 309 309 309 309 310 310 310 310 309 309 308 307 306 304 300
310 310 310 310 309 310 311 311 312 311 311 312 308 303 305 311 312 311 312 311 310 310 310 309 309 309 308 306 305 308 309 310 311 311 310 310 310 310 310 310 311 311 310 310 310 310 310 310 310 310 310 310 310 310 310 310 310 310 310 310 310 310 310 310 310 309 310 309 309 309 309 309 309 308 309 309 309 310 309 309 308 307 306 305 302 298
310 310 310 309 309 311 311 309 311 313 309 307 305 305 308 313 314 311 309 308 310 311 310 309 308 308 308 307 308 309 310 310 310 310 310 310 310 310 310 310 310 310 310 310 310 310 310 310 310 310 310 310 310 310 309 309 309 309 309 309 309 309 309 309 309 309 309 309 309 309 308 308 308 308 308 308 308 309 309 308 307 306 305 303 300 297
310 310 310 310 309 310 311 309 310 312 308 306 308 309 309 310 311 310 309 308 309 310 311 310 309 310 310 310 309 310 310 310 310 310 310 310 310 310 310 310 310 310 310 310 310 310 310 309 309 310 310 309 309 309 309 309 309 309 309 309 309 309 309 309 309 309 309 309 308 308 308 308 307 307 307 307 308 308 308 308 307 306 304 302 299 296
311 309 310 311 310 309 311 310 309 308 305 305 308 309 309 308 309 310 311 310 310 310 310 310 310 310 310 310 310 310 309 310 310 310 310 310 310 310 310 310 310 310 310 310 310 309 309 310 309 309 309 309 309 309 309 309 309 309 309 309 309 309 310 309 309 309 309 308 308 307 307 307 307 307 307 306 307 307 307 307 306 305 304 301 298 295
310 307 307 312 312 309 309 308 307 305 304 305 308 309 309 309 309 309 310 311 311 311 310 310 310 310 310 310 310 309 309 310 310 309 309 310 309 309 309 310 310 310 310 310 310 310 309 309 309 309 309 309 309 309 309 309 309 309 309 309 309 309 309 309 309 309 308 308 307 307 307 307 306 306 306 306 306 305 305 305 305 305 304 301 297 295
308 306 308 314 313 310 310 310 308 307 306 306 308 309 308 309 309 308 310 311 311 311 310 310 310 310 310 310 309 310 310 310 309 309 309 309 309 309 309 310 309 310 310 309 309 309 309 309 309 309 309 309 309 309 309 309 309 309 309 309 309 309 309 309 308 308 308 307 307 307 306 306 306 305 305 304 304 304 304 304 303 303 302 300 297 295
308 306 311 315 312 309 311 310 305 305 306 306 307 308 308 309 309 309 310 310 310 310 310 310 310 310 310 310 310 310 310 310 309 310 310 309 309 309 309 309 310 310 309 309 309 310 309 309 309 309 309 309 309 309 309 309 309 309 309 309 309 309 309 308 308 308 307 307 306 306 306 305 305 304 304 303 303 303 303 303 302 302 301 300 298 296
307 307 310 313 310 309 310 307 303 305 307 306 306 308 309 310 310 310 310 310 310 310 310 309 309 310 309 310 310 310 310 310 309 309 309 309 309 309 309 310 310 309 309 309 309 309 309 309 309 309 309 309 309 309 309 309 309 309 308 308 308 308 307 307 307 307 307 307 306 306 305 305 305 304 304 303 302 302 302 302 301 301 300 298 296 294
306 309 310 310 310 310 310 307 306 309 310 307 307 309 310 310 310 310 310 310 310 310 310 309 309 309 309 309 310 310 309 309 309 309 309 309 309 309 309 310 309 309 309 309 309 309 309 309 309 309 309 309 308 309 309 308 308 308 307 307 307 306 306 306 306 306 307 307 306 306 305 305 304 304 303 303 302 301 301 300 300 299 298 296 293 291
307 309 309 308 310 310 308 306 307 310 310 308 308 310 310 310 310 310 310 310 310 310 309 309 309 309 309 309 309 309 309 309 309 309 309 309 309 309 309 309 309 309 309 309 309 309 309 309 309 308 308 308 308 308 308 307 307 307 306 306 306 306 306 306 306 306 306 306 306 305 305 304 304 303 302 302 301 300 300 299 298 298 296 295 292 291
Wind_Speed
14 7 5 7 7 9 10 8 7 5 7 8 5 4 4 2 2 3 3 3 1 1 4 4 5 9 10 10 12 10 9 11 13 15 17 18 19 22 24 27 28 30 29 25 25 28 27 27 27 27 28 28 28 28 28 27 27 26 27 29 30 30 30 30 31 31 30 30 30 30 31 31 31 30 29 28 28 27 26 24 22 22 21 21 21 20
11 7 5 7 8 10 8 6 8 6 7 7 5 4 4 3 3 4 3 4 1 2 4 2 3 9 11 12 13 9 7 12 17 18 20 22 20 20 21 24 27 28 27 26 28 29 27 27 27 27 28 29 30 28 28 28 27 26 27 28 29 30 31 32 32 32 32 32 31 31 31 31 31 31 30 29 28 26 25 23 23 23 22 22 22 21
6 5 5 8 10 10 6 6 9 7 7 6 5 5 3 2 2 4 3 3 1 2 3 2 1 8 11 12 13 12 12 17 22 22 23 24 22 21 22 23 24 24 25 26 28 29 27 26 26 27 29 29 29 27 28 29 28 28 29 28 28 30 32 33 33 34 33 33 32 30 30 30 30 30 29 28 26 25 24 23 23 23 23 23 22 22
5 4 8 11 12 11 6 6 8 6 5 4 4 5 3 2 1 3 2 3 1 2 2 1 3 6 8 9 10 13 18 21 24 24 24 25 24 25 26 25 25 25 26 26 26 26 27 27 27 28 28 27 28 28 29 30 29 29 30 29 29 30 31 32 33 34 33 33 31 30 30 29 29 28 27 26 25 26 25 25 24 24 23 22 22 21
2 4 12 11 9 11 8 6 7 5 3 2 4 5 3 3 3 3 2 4 2 2 1 2 4 5 6 8 9 8 9 15 20 20 22 25 26 27 27 27 28 28 29 29 27 25 25 27 28 28 27 27 28 29 29 29 28 29 30 30 30 30 30 30 31 33 33 33 33 32 31 31 30 30 29 28 28 28 27 27 26 24 22 21 22 22
1 5 14 11 6 10 9 6 7 7 4 2 3 6 6 7 5 3 2 5 3 3 2 2 3 5 4 6 9 5 3 8 12 13 19 25 24 26 28 28 30 30 31 32 31 29 26 25 27 29 29 29 29 29 28 27 27 28 30 30 30 31 31 30 31 31 33 34 34 34 34 34 34 33 32 31 29 28 27 26 25 23 21 20 21 22
2 6 11 9 7 9 7 6 6 7 6 2 5 8 8 7 6 4 1 2 0 2 1 2 2 5 6 5 7 4 4 8 9 9 17 25 25 26 28 29 30 30 31 32 33 33 30 27 26 29 30 30 29 28 26 26 27 28 28 29 30 31 32 32 31 31 32 34 35 35 35 35 36 35 34 31 28 27 26 24 23 21 21 20 20 20
4 8 7 8 9 7 7 7 7 10 8 3 6 11 9 6 7 5 3 2 3 2 2 3 2 3 6 6 5 2 4 9 8 8 13 22 26 28 29 31 31 31 31 31 32 32 32 31 28 29 30 30 29 27 25 25 26 27 26 26 28 31 33 33 33 33 33 34 35 35 35 36 36 36 33 30 28 27 25 23 22 21 20 20 19 20
6 10 11 12 10 7 7 7 9 12 6 4 5 9 8 7 6 4 4 3 2 2 3 2 2 2 6 6 3 2 5 9 10 8 10 17 23 25 27 30 31 32 32 33 32 31 31 32 32 31 30 30 30 29 27 25 25 26 26 26 27 29 32 33 33 34 34 35 35 35 35 36 36 35 32 30 28 28 26 25 24 22 20 19 19 20
3 10 15 14 8 6 4 5 11 11 3 3 7 7 4 3 4 3 3 2 1 1 4 2 2 2 7 6 2 1 4 7 8 7 10 17 23 23 24 25 25 27 30 31 31 30 30 31 33 34 34 33 32 31 29 27 26 26 26 27 28 28 30 31 33 34 35 35 35 35 36 36 36 34 32 31 31 30 29 28 26 24 22 21 21 21
1 6 11 7 5 7 6 5 10 11 8 9 7 6 6 4 4 3 1 2 1 3 3 3 4 3 5 5 4 4 5 6 7 7 9 16 23 25 25 25 24 24 25 26 26 27 27 29 32 35 37 37 37 35 33 31 30 28 28 28 29 28 28 29 31 34 35 35 36 36 36 36 35 34 33 33 32 32 31 30 28 26 24 22 22 22
4 5 5 3 6 10 9 5 3 8 13 10 4 4 4 2 3 3 3 2 3 4 3 5 3 5 7 6 3 5 5 4 7 7 8 13 20 25 25 25 20 18 19 20 21 23 23 24 26 30 34 36 38 38 37 36 34 31 29 29 28 29 29 29 29 32 34 36 36 36 35 35 35 34 34 34 33 32 31 30 29 27 25 23 22 23
3 1 2 1 8 12 10 5 3 3 6 6 3 6 5 1 1 1 2 1 4 5 3 4 2 4 9 6 4 8 8 8 10 13 14 16 21 23 23 22 17 13 15 15 16 18 17 18 20 23 27 29 32 35 36 37 36 33 30 30 30 29 29 29 29 30 32 35 36 36 35 34 33 33 34 34 33 32 31 30 29 27 26 24 23 24
1 4 2 3 4 11 11 8 4 2 6 7 6 7 6 4 4 6 4 2 4 4 2 2 2 4 6 3 6 11 12 15 15 18 21 22 25 26 26 26 22 19 18 17 16 16 15 15 16 18 22 24 26 29 32 34 34 33 31 31 32 30 29 29 29 29 30 32 34 34 34 33 33 33 33 33 32 31 30 30 29 27 26 24 23 24
7 2 6 6 4 11 12 9 7 6 7 8 6 5 5 5 5 6 5 3 4 2 1 2 2 3 2 2 6 10 13 17 18 19 22 25 28 28 29 30 29 28 24 21 20 18 17 17 16 16 18 21 22 24 28 31 32 33 32 32 32 30 29 29 30 30 29 30 31 32 32 32 33 32 32 31 30 30 29 28 28 26 25 24 23 23
7 2 3 1 4 11 11 6 6 9 6 3 2 3 3 4 4 3 4 4 3 2 1 3 4 4 3 5 9 8 9 13 16 18 20 24 26 25 26 27 27 27 25 23 22 21 21 20 18 16 16 17 18 19 22 26 28 31 31 31 31 30 29 29 30 30 30 29 29 30 31 31 31 31 31 30 29 29 28 27 26 25 24 23 23 24
5 1 3 3 3 9 11 10 9 10 7 2 3 5 4 4 6 5 2 1 3 2 3 2 4 5 4 7 9 7 7 9 12 14 16 19 20 20 24 24 22 22 20 18 18 19 21 22 21 17 15 14 14 14 17 20 23 26 27 29 29 29 29 29 30 30 30 30 30 31 31 31 30 30 30 30 29 28 27 26 26 25 24 23 24 25
6 3 3 2 3 4 8 12 9 5 5 5 6 7 3 3 3 4 2 2 2 3 4 2 5 5 3 5 6 4 4 10 11 8 9 13 13 14 18 19 17 17 16 13 13 14 16 18 20 17 13 12 11 11 12 14 17 20 21 23 24 25 26 27 28 30 30 31 32 32 32 32 31 30 30 29 28 27 26 26 26 25 25 25 25 25
5 4 3 1 3 1 2 8 5 0 2 4 5 5 4 3 2 2 3 2 2 3 4 3 4 4 5 6 4 3 3 7 10 8 7 9 10 10 13 15 13 12 12 13 13 12 11 12 15 14 11 10 9 10 11 12 14 15 17 19 21 23 24 25 27 28 30 31 32 32 32 32 32 31 31 30 29 28 27 27 26 26 26 26 26 25
4 5 1 2 1 2 1 4 6 4 2 2 2 3 1 2 3 3 3 3 3 3 3 3 4 3 6 6 5 7 8 8 11 11 8 10 10 9 12 14 14 11 10 11 12 10 7 8 11 11 11 10 10 11 11 12 13 15 16 18 20 22 23 25 27 28 29 29 30 31 31 32 32 32 31 30 29 29 29 28 27 27 27 26 27 26
2 4 4 1 1 2 3 4 8 10 6 4 5 6 4 1 1 2 2 2 4 4 3 2 4 5 5 4 8 11 10 10 12 10 9 12 12 11 11 12 13 11 10 9 9 8 6 7 9 10 10 10 10 11 12 13 14 15 16 17 18 20 21 23 25 27 28 28 29 30 30 30 31 30 30 29 29 29 29 29 28 28 28 28 28 27
2 3 6 4 2 4 3 3 4 8 7 7 6 7 8 5 3 4 3 1 2 3 4 2 5 7 4 4 7 9 9 11 11 7 7 12 12 12 11 9 8 7 6 6 7 7 7 7 8 8 8 9 10 11 12 13 13 14 14 15 16 17 18 20 22 24 26 28 29 30 29 29 29 28 28 28 28 29 28 28 29 28 28 28 28 27
3 5 5 3 3 4 3 2 2 3 3 3 3 4 6 5 4 6 5 3 1 1 2 3 3 7 4 6 7 8 9 11 10 8 9 13 12 11 8 5 5 5 4 3 4 6 7 6 7 8 8 9 10 11 12 12 12 13 13 13 14 15 16 17 19 20 23 25 27 28 28 28 28 28 27 28 28 28 29 28 27 27 28 27 28 28
4 5 5 3 0 3 4 3 2 1 1 3 4 2 5 4 4 5 4 4 3 3 3 2 4 6 3 3 3 7 9 10 13 14 14 13 11 8 4 4 5 5 5 3 1 3 5 5 6 7 7 9 9 10 12 12 12 12 12 12 13 14 14 15 17 18 19 21 23 25 26 26 26 26 26 27 27 27 27 26 26 28 27 26 28 29
4 4 5 6 3 3 4 4 3 3 3 4 3 3 5 6 6 4 2 4 2 7 8 5 7 6 4 4 2 5 8 9 16 17 11 11 9 4 2 4 4 4 6 5 3 2 2 3 4 5 6 8 9 10 11 11 12 12 12 13 13 13 14 14 15 16 17 18 19 21 23 23 24 24 25 26 25 24 25 25 26 27 26 27 29 28
4 4 6 8 8 7 7 6 5 5 3 1 3 8 10 11 11 7 3 4 6 8 9 9 9 4 4 3 1 4 5 7 14 11 4 6 7 3 2 2 3 5 6 5 5 5 4 3 3 4 5 6 7 9 10 11 12 13 13 14 14 13 13 13 14 15 16 17 17 18 19 20 21 22 23 22 21 21 22 22 24 25 25 26 28 26
3 3 6 9 12 11 9 6 5 9 9 7 9 13 12 10 12 8 5 5 8 4 6 13 12 6 6 4 3 7 6 6 10 8 4 5 4 2 3 1 6 6 5 5 5 5 5 6 6 5 5 6 6 8 10 11 12 13 14 14 14 14 13 13 14 14 15 16 16 17 17 18 18 18 18 18 17 16 18 19 23 26 26 25 27 27
4 5 10 11 11 5 2 4 8 12 15 14 12 12 11 10 12 11 10 12 8 6 8 14 11 12 12 7 6 8 5 5 8 7 5 5 4 4 2 1 4 3 1 2 3 4 6 8 8 8 8 8 9 10 11 12 12 13 14 14 14 14 13 13 13 13 14 15 15 16 16 15 14 14 15 17 18 19 20 21 23 26 26 25 27 28
3 8 11 9 7 3 5 4 10 12 11 10 12 14 14 15 16 17 21 17 11 9 15 9 11 17 15 8 8 8 6 9 9 6 5 6 8 7 4 3 3 5 7 9 8 7 8 10 11 11 11 11 12 13 13 13 13 13 14 14 15 14 14 14 13 13 14 15 15 15 14 14 13 14 15 17 19 21 22 22 24 26 27 28 28 28
4 5 6 8 5 6 6 1 5 9 8 7 10 13 13 16 19 22 26 20 12 15 19 6 6 16 11 8 10 13 14 16 12 9 10 10 10 10 9 10 11 14 15 13 12 12 12 12 12 12 13 14 13 14 14 14 14 13 13 14 14 15 15 16 15 15 14 15 15 15 14 15 15 16 18 18 19 21 22 23 25 28 29 29 29 29
6 4 2 6 5 4 5 4 4 7 8 8 9 10 12 16 20 22 22 13 8 17 20 8 10 15 7 9 12 14 14 13 12 13 15 15 15 15 15 18 19 20 19 18 20 22 20 16 13 13 13 13 13 13 14 14 13 14 13 13 13 13 14 16 16 16 16 15 15 16 16 16 17 17 18 20 21 23 24 26 28 29 30 31 31 31
3 2 2 6 5 2 2 3 6 6 6 5 6 11 17 18 17 17 15 10 12 18 16 10 13 13 6 9 9 9 9 10 13 16 18 19 21 21 22 23 23 22 23 27 30 28 23 18 14 11 10 11 14 15 15 15 15 16 15 14 13 13 14 15 16 17 17 17 16 17 17 18 20 20 21 23 24 25 27 29 31 31 31 31 30 30
6 4 3 6 7 4 1 4 7 7 5 2 10 18 22 18 14 12 12 14 19 18 13 12 14 8 6 9 9 7 7 11 16 21 24 26 25 25 26 27 27 29 30 31 30 24 20 17 14 12 13 14 15 16 17 17 17 17 16 15 14 14 14 15 15 16 17 18 18 19 19 19 22 24 25 27 28 29 31 31 30 29 28 28 29 30
9 8 5 5 5 3 4 5 7 5 5 10 12 16 20 19 19 20 20 23 23 18 14 12 11 4 6 9 11 11 13 19 25 30 32 31 30 30 32 32 32 32 31 28 25 21 19 18 16 16 18 18 18 18 19 19 17 16 15 15 15 15 15 15 16 16 17 18 19 20 20 21 22 23 25 26 27 29 30 30 28 28 28 29 30 32
10 9 5 3 4 3 4 5 6 7 13 10 3 10 19 24 27 26 25 23 19 16 16 16 16 12 10 11 14 16 20 24 26 29 31 31 32 32 33 33 32 29 28 27 24 22 20 19 19 20 22 21 21 21 21 19 17 16 15 14 14 14 15 15 16 17 18 19 20 21 22 22 23 23 24 25 26 26 27 28 29 29 30 31 32 33
13 9 4 3 4 4 3 6 8 8 8 6 1 5 14 18 18 17 17 17 14 14 16 21 23 20 15 14 13 12 15 18 21 28 33 31 30 30 31 33 32 30 29 27 24 22 20 21 22 23 24 24 23 23 22 21 19 17 15 14 14 14 15 16 16 16 18 20 21 21 22 22 23 24 25 26 26 26 27 29 30 30 31 32 34 35
14 12 6 3 3 3 4 6 5 5 7 11 9 6 9 10 10 11 11 14 14 16 18 20 20 18 16 14 11 8 8 9 13 26 35 32 30 32 33 34 34 31 28 26 24 23 23 24 25 26 26 26 24 24 24 22 20 19 18 16 15 14 15 15 15 16 18 19 20 21 22 23 23 23 24 25 27 27 28 30 30 31 32 34 35 36
7 10 11 8 3 2 5 3 3 3 10 14 7 6 11 14 13 12 7 12 15 20 23 20 16 17 15 9 10 10 6 4 6 20 34 36 35 37 37 36 35 32 30 28 26 25 23 23 23 22 22 23 22 23 23 23 23 22 20 18 17 15 15 14 15 17 18 18 19 20 21 22 23 24 24 25 26 28 29 30 31 32 33 35 36 37
4 3 7 8 3 4 7 6 7 9 14 9 5 8 15 24 22 15 5 13 12 17 26 23 18 19 14 12 18 16 7 4 7 19 36 39 35 34 34 32 30 27 25 23 20 18 17 16 16 16 17 18 18 19 21 21 22 21 19 18 16 15 14 14 14 16 16 16 17 19 20 22 23 24 25 26 26 28 29 30 31 32 34 36 37 38
5 3 4 6 6 7 9 7 5 7 9 6 7 9 21 33 27 15 3 13 5 18 31 31 23 22 19 21 23 15 9 12 15 24 35 33 25 23 21 17 16 15 14 14 13 12 12 12 12 12 12 12 13 14 16 16 16 16 14 13 12 12 11 11 12 13 14 15 16 17 19 21 23 24 26 27 27 28 29 31 32 33 36 37 38 39
4 2 3 7 7 7 9 8 5 6 7 6 7 16 30 31 18 8 9 8 7 19 31 34 32 33 33 32 28 19 21 30 30 30 30 23 15 12 10 8 10 9 9 10 10 9 9 9 9 9 8 9 9 8 8 7 7 6 5 5 5 5 6 6 8 10 12 14 15 17 18 20 22 24 25 26 27 29 30 31 33 35 37 39 40 41
6 5 4 6 6 5 5 4 4 7 7 9 13 23 30 19 5 9 8 3 8 16 24 32 36 37 34 33 31 26 29 34 33 31 28 21 14 10 8 8 10 9 8 9 8 8 8 7 7 6 5 5 3 1 1 2 3 4 6 6 5 5 6 6 7 8 10 12 14 16 17 19 20 22 24 26 27 29 30 32 33 36 38 40 42 42
10 9 8 6 5 4 2 5 5 9 7 22 23 13 12 7 7 11 10 6 9 16 19 25 28 24 22 25 28 28 26 24 23 24 24 20 15 11 10 10 9 8 8 8 8 9 8 6 5 4 4 4 3 2 3 4 5 7 8 8 8 8 8 9 8 9 11 12 14 15 16 18 19 21 22 24 26 28 30 32 34 37 40 42 43 43
9 10 9 8 8 8 7 11 8 5 10 33 30 12 14 13 10 15 17 11 12 16 19 20 18 16 18 20 21 24 24 20 18 17 17 17 15 11 10 9 8 8 9 8 9 9 7 6 6 6 6 4 2 1 3 5 6 8 9 10 11 11 11 11 11 11 12 12 14 15 16 17 19 20 22 24 26 28 30 32 35 38 41 43 45 45
14 12 8 7 9 8 7 10 6 2 14 32 24 17 28 26 13 16 23 19 18 21 21 21 20 18 19 18 18 20 22 20 19 17 15 15 13 11 10 9 8 9 8 8 9 9 7 7 7 7 5 2 0 2 4 6 7 9 10 12 14 14 14 13 13 13 13 13 14 14 15 16 18 20 22 24 26 28 30 32 35 39 43 45 46 46
8 8 5 3 4 3 5 7 4 3 12 24 15 13 32 34 18 16 22 20 20 23 23 22 21 19 20 20 19 19 19 19 19 17 15 15 14 13 11 10 8 8 8 7 8 9 9 10 8 6 4 2 1 3 4 6 8 9 11 13 15 16 16 16 15 15 14 14 14 15 15 16 17 19 21 23 26 28 30 33 35 39 43 45 47 48
4 7 5 3 5 7 8 10 9 6 13 24 19 14 26 32 22 17 20 20 21 24 24 22 20 19 20 20 18 16 17 17 17 15 15 16 15 13 12 10 9 9 9 9 9 10 12 11 9 7 5 3 3 4 5 7 9 10 11 13 15 17 19 18 17 17 16 15 15 15 16 16 17 18 20 22 25 28 30 33 36 40 43 46 48 49
6 9 7 4 8 11 9 6 9 9 14 22 22 16 20 28 23 17 19 21 21 23 24 23 21 21 20 18 16 16 16 17 17 16 16 16 15 13 12 11 11 10 10 11 12 13 14 12 10 8 6 5 5 5 6 7 8 9 11 12 13 16 19 20 19 18 17 16 15 15 15 16 17 17 19 21 24 27 30 32 36 40 43 45 47 48
9 10 9 6 6 6 6 2 6 6 4 13 20 20 24 31 30 24 23 23 22 23 25 24 23 21 19 17 17 16 16 17 18 16 16 16 15 14 13 13 12 12 12 13 15 16 15 13 11 9 8 7 6 6 6 7 8 9 10 11 11 13 15 17 18 18 18 17 17 16 15 16 16 17 18 19 21 24 27 31 34 38 41 44 46 47
11 10 8 6 7 9 8 6 13 9 2 12 26 30 30 34 35 31 27 25 23 23 23 24 23 21 19 18 18 17 17 18 18 17 16 16 15 15 14 14 13 13 14 16 18 18 16 14 12 10 9 8 7 7 7 7 8 9 9 10 10 10 11 14 15 15 16 16 16 16 15 15 15 16 17 19 20 22 25 29 32 36 40 43 45 47
14 13 12 11 11 14 12 19 25 17 8 16 33 37 32 32 35 36 33 29 26 23 21 22 22 20 19 18 17 17 18 17 17 17 16 16 15 15 14 14 14 14 16 17 18 17 15 14 13 12 11 10 9 8 8 8 9 9 9 9 10 10 11 12 14 15 15 16 15 15 15 14 15 16 17 18 20 22 24 27 31 34 38 42 45 47
Wind_Direction
160 153 177 180 173 180 187 180 164 143 146 146 133 130 125 133 266 265 263 303 86 184 272 248 233 257 260 263 267 258 250 249 248 253 257 257 254 251 250 249 248 248 251 254 251 248 247 247 247 247 248 248 248 247 246 245 243 242 239 238 237 235 236 236 236 237 237 238 238 237 237 237 238 240 240 240 240 240 240 240 242 244 245 247 250 253
168 183 190 175 172 177 178 154 138 132 137 139 138 146 128 126 250 254 251 303 15 176 269 305 260 263 262 264 264 247 236 251 246 246 254 257 257 257 255 255 255 255 257 257 255 252 250 248 247 247 247 247 248 249 248 248 246 245 243 241 239 236 236 236 237 238 238 238 238 239 240 240 241 241 241 242 242 244 245 245 246 245 246 246 247 249
182 195 173 164 162 157 153 143 143 143 142 139 133 142 160 171 247 267 265 312 16 183 266 357 309 262 263 265 262 241 231 251 255 252 258 261 260 260 260 261 261 263 264 262 259 257 254 251 247 245 246 246 248 248 248 249 248 247 246 244 241 239 237 236 237 239 238 239 240 241 243 244 245 245 244 245 245 246 246 245 245 246 246 247 247 248
181 192 170 163 156 148 152 157 143 130 131 125 126 143 185 189 210 240 254 310 300 184 253 317 307 275 270 271 268 248 238 250 259 259 260 260 260 263 263 265 266 267 268 268 265 261 256 252 248 245 244 245 246 246 246 246 246 246 245 244 242 241 240 238 238 239 239 241 242 243 245 246 246 245 243 242 241 240 240 240 241 242 245 248 250 248
156 182 162 149 146 149 148 160 150 139 141 131 148 153 164 182 194 209 274 321 322 7 15 334 306 279 257 258 262 258 244 249 255 257 257 255 256 261 262 263 266 268 270 271 271 268 262 253 248 247 247 246 246 246 246 247 247 247 246 244 243 244 244 242 240 240 240 241 241 241 241 242 241 239 237 235 234 233 234 237 238 241 244 249 254 252
177 181 157 139 141 152 149 169 171 164 167 189 197 175 173 178 176 205 315 5 14 344 356 13 297 274 276 261 253 266 279 256 254 258 258 256 256 257 259 263 266 268 269 270 270 270 268 258 249 247 247 247 246 246 246 248 248 248 247 246 245 245 244 243 242 241 240 240 240 239 238 237 236 236 235 233 233 234 235 239 242 245 247 248 250 251
179 166 152 143 147 148 152 176 181 167 155 212 211 179 175 164 153 183 241 48 78 251 276 72 226 267 306 283 258 275 288 267 261 263 258 257 257 254 257 263 266 267 267 267 267 266 266 263 254 247 245 245 244 244 245 247 248 247 247 246 244 244 243 243 242 241 240 240 240 239 239 238 238 238 238 237 237 239 242 247 250 253 254 253 250 248
131 141 146 146 145 151 170 181 189 171 155 235 204 168 167 159 166 179 132 162 228 259 325 41 121 268 289 264 264 301 288 279 273 271 260 255 256 256 257 260 262 265 266 266 266 265 263 262 259 251 247 245 244 244 246 247 248 248 248 247 245 243 242 242 241 241 241 240 240 241 241 241 241 242 242 241 241 244 248 251 253 254 256 255 252 249
130 159 172 162 160 182 183 169 172 163 159 245 185 155 169 168 169 155 123 198 264 357 310 1 103 261 273 262 296 326 255 263 266 264 257 250 250 253 256 258 259 260 262 264 265 266 264 261 259 256 251 248 246 245 246 248 251 251 248 246 245 244 242 240 240 240 241 242 242 243 243 243 243 244 244 244 244 247 249 251 251 252 253 252 250 250
171 186 181 165 170 191 162 132 158 159 155 178 136 103 101 108 100 103 134 180 42 313 243 215 127 255 274 257 254 293 245 245 258 262 259 255 253 254 257 259 259 260 261 263 265 265 265 262 259 257 254 251 248 246 246 247 251 252 249 244 243 243 243 241 239 239 240 241 242 242 243 244 244 245 244 244 244 246 249 251 251 250 250 251 250 249
340 173 176 169 174 164 125 116 161 161 137 127 118 84 69 51 59 72 78 110 120 267 244 222 159 148 277 261 189 215 222 205 228 250 258 258 256 256 259 260 262 262 262 262 262 263 264 263 261 257 255 253 252 250 247 246 249 252 251 246 243 243 243 243 241 240 240 240 241 242 243 244 245 245 244 244 244 245 247 249 250 250 250 251 251 251
44 122 174 188 163 145 112 96 141 145 141 133 118 117 106 30 44 41 0 64 219 251 256 249 185 153 237 253 182 226 244 209 214 229 245 251 251 251 252 257 263 265 262 259 258 260 261 264 265 261 257 255 255 254 251 248 248 250 249 246 245 244 242 242 241 240 239 239 241 242 243 244 245 245 245 245 245 246 247 249 251 252 252 252 252 252
67 146 231 142 166 159 131 105 44 74 151 150 121 137 135 84 103 216 268 197 236 246 231 232 196 199 241 250 241 249 255 241 226 230 242 252 258 260 259 262 267 265 261 259 258 258 261 268 271 265 261 258 257 256 252 249 247 246 245 243 244 244 243 242 241 241 240 240 241 242 243 245 245 246 246 247 247 248 249 251 253 253 253 253 252 251
130 305 241 142 176 178 157 143 142 156 182 179 166 165 160 144 166 205 207 208 249 254 249 216 196 259 279 279 233 237 245 248 246 250 257 262 268 272 274 276 279 273 266 264 264 263 266 277 281 273 264 261 261 257 250 244 241 240 240 241 243 244 244 243 242 243 242 241 241 242 244 245 246 246 247 248 248 248 249 250 252 252 252 253 251 251
169 253 201 176 183 181 173 168 160 144 164 186 182 165 169 167 176 195 190 194 223 234 275 258 209 213 227 259 232 233 252 263 267 268 268 270 271 275 278 281 283 281 277 273 270 269 271 278 283 280 269 262 263 259 247 238 233 233 236 240 243 244 245 244 242 243 243 243 243 243 244 244 245 246 247 248 249 249 249 250 250 251 251 251 249 248
165 213 233 190 154 166 167 166 133 118 144 199 159 139 211 193 143 143 183 175 163 170 227 221 230 216 210 275 269 251 258 271 271 268 267 268 273 279 281 281 282 283 282 279 274 271 270 271 274 278 274 262 259 255 244 234 230 232 235 239 242 245 246 245 243 242 243 244 244 243 244 244 245 245 245 246 246 247 247 247 248 248 249 249 246 243
154 109 337 24 120 167 166 165 155 150 157 137 164 193 210 154 117 113 191 54 95 189 243 217 251 286 307 287 281 274 273 280 276 271 270 270 274 279 279 280 282 280 283 280 273 270 267 263 259 264 270 263 255 248 238 232 231 233 236 240 243 246 247 246 245 244 243 244 243 243 244 244 244 244 244 244 245 246 246 245 245 244 244 243 241 242
150 96 342 63 134 196 166 156 159 161 147 139 187 195 143 101 99 111 152 4 69 213 270 259 246 274 277 265 300 337 276 268 276 278 276 275 277 282 284 293 295 286 284 281 272 271 269 258 249 251 260 261 255 249 242 237 237 238 241 244 246 248 249 249 248 246 245 244 243 243 243 243 244 243 244 244 244 245 245 244 243 240 238 236 236 241
133 97 319 328 140 211 124 138 151 23 125 159 192 181 135 163 210 141 157 172 158 224 277 300 281 254 212 229 292 339 255 259 281 293 293 282 285 299 304 312 319 305 287 277 268 268 269 254 245 247 253 254 251 251 250 248 248 248 248 249 250 251 251 251 250 249 248 247 245 244 243 243 244 243 244 244 244 244 243 242 240 238 237 235 236 239
120 110 247 288 150 156 115 156 182 179 113 65 134 173 159 149 172 170 163 160 165 203 248 309 319 268 222 209 206 234 247 254 268 275 278 277 286 309 311 308 312 309 296 279 263 256 252 236 235 240 244 248 251 254 257 257 258 257 256 256 256 256 256 255 254 253 252 250 249 247 245 244 243 243 243 243 243 243 241 241 238 236 236 236 237 236
104 107 148 199 356 162 187 208 189 173 165 155 161 183 198 160 124 155 158 131 135 161 197 274 289 263 248 199 186 209 228 237 247 256 264 276 293 313 315 308 305 303 298 282 256 241 232 220 225 235 241 250 256 260 263 263 263 264 263 263 263 262 262 261 259 258 256 255 253 251 249 247 246 244 243 243 243 242 242 240 237 235 233 233 236 235
97 112 138 140 167 183 226 255 184 175 185 178 175 191 189 171 137 150 198 222 98 158 178 178 263 267 244 196 200 206 211 224 231 231 248 270 293 313 318 316 314 320 316 284 248 229 222 214 220 233 244 255 261 263 265 266 268 270 270 270 269 267 267 265 263 260 257 256 254 253 253 251 250 248 246 245 244 242 241 238 235 235 232 230 234 234
98 104 117 129 188 204 258 293 194 203 200 168 201 200 166 160 146 151 197 214 123 206 152 121 267 272 228 195 204 210 221 231 231 229 246 265 288 307 319 334 338 351 355 314 247 228 227 225 230 239 248 256 261 263 265 268 269 271 272 272 271 270 268 266 264 261 257 254 252 251 251 249 249 248 246 245 244 241 239 235 232 233 231 230 233 231
135 112 102 105 218 303 321 344 354 337 139 190 237 178 140 172 166 146 179 170 158 201 149 108 265 264 256 242 230 241 253 258 255 252 253 266 289 303 323 356 357 8 17 15 1 237 243 246 249 254 257 257 259 260 262 266 268 269 272 273 273 273 271 269 268 266 262 258 254 251 249 246 245 244 242 241 240 237 235 231 228 229 229 230 230 226
155 134 123 120 92 356 340 341 306 258 205 203 201 149 168 173 137 122 140 122 195 207 165 172 237 244 274 310 326 284 284 277 264 259 254 266 286 299 322 352 16 38 33 31 28 355 292 277 272 266 264 261 261 263 264 267 269 270 273 275 276 276 275 274 272 270 268 263 258 253 249 245 242 240 239 237 235 233 231 228 225 226 228 229 224 221
140 156 152 144 152 179 195 206 215 197 176 208 173 174 192 181 162 165 125 129 224 208 167 198 232 253 292 308 342 275 271 261 261 267 274 271 278 278 272 332 73 71 52 54 46 30 19 348 319 290 280 275 271 269 268 266 266 268 271 273 276 278 279 279 277 274 271 265 259 253 247 242 240 238 236 233 231 228 225 225 222 220 225 226 221 220
102 180 183 174 180 187 189 186 140 126 148 194 197 185 188 183 176 163 123 187 212 157 177 224 228 243 263 247 243 258 245 241 258 272 284 268 265 243 243 109 96 87 66 58 40 21 7 350 338 321 308 296 287 282 276 272 268 268 271 273 277 281 283 284 282 279 276 269 263 256 247 240 237 235 228 224 227 226 221 223 222 217 218 221 221 224
90 201 199 193 193 178 130 156 136 143 173 189 181 178 179 175 176 177 199 213 170 130 230 230 210 228 239 215 225 249 234 229 253 266 272 256 228 215 237 95 112 115 52 319 319 325 321 319 315 307 300 291 288 286 282 281 280 278 280 280 281 284 285 283 280 278 276 273 267 260 253 244 236 230 221 213 215 219 217 218 219 215 216 221 224 228
115 205 197 187 184 67 47 147 149 153 176 175 169 180 180 177 182 194 215 213 160 186 237 208 178 224 231 200 214 230 222 240 254 265 268 243 216 222 262 281 237 251 271 277 283 291 297 297 292 288 287 280 277 279 283 288 291 292 294 292 288 286 283 280 277 273 271 269 266 258 251 244 231 224 223 216 212 215 217 217 218 218 219 222 225 229
162 202 186 163 147 34 19 46 145 147 148 151 176 184 179 187 195 203 217 214 185 223 243 203 196 244 232 188 215 220 226 246 259 256 252 247 239 246 267 269 262 266 271 274 278 282 287 290 283 277 276 274 276 283 289 293 297 301 303 300 293 287 283 280 278 275 270 267 265 259 250 243 234 222 220 220 218 219 220 218 218 218 218 222 227 233
190 195 140 127 114 23 6 25 80 133 147 158 181 185 187 200 208 214 224 216 197 239 248 242 268 268 220 181 216 222 224 242 254 252 252 254 258 263 265 264 267 272 278 286 293 294 295 292 282 272 271 278 288 293 293 293 297 300 301 300 294 287 281 278 276 276 274 268 261 255 247 242 239 231 222 218 219 220 219 218 219 222 226 230 233 233
169 176 86 117 144 236 334 77 100 110 114 140 185 200 201 204 210 219 224 206 204 231 239 238 258 260 194 172 208 227 229 235 245 251 254 254 255 259 263 263 268 277 287 293 295 295 292 284 276 274 280 296 301 298 295 292 289 289 289 288 285 281 276 273 272 272 273 270 262 254 246 236 232 230 226 222 221 222 224 226 228 229 231 231 228 223
135 136 122 144 167 215 283 136 131 104 85 183 222 210 200 200 209 220 228 219 215 219 219 223 236 232 150 162 194 217 229 232 239 244 248 251 251 253 257 261 269 277 283 286 285 281 279 276 277 286 297 305 302 296 295 291 285 285 284 280 278 277 275 272 270 267 267 268 266 259 253 243 231 227 225 224 224 226 229 232 231 228 225 221 217 213
152 146 152 161 157 184 205 156 117 117 199 229 226 198 184 189 201 210 221 221 216 216 220 236 248 222 142 167 188 198 215 229 239 244 247 252 254 255 259 263 268 272 272 273 272 270 275 280 284 293 299 298 294 292 293 291 288 285 282 280 280 279 278 275 270 266 262 261 262 259 256 251 242 235 231 228 227 228 230 231 227 221 217 215 213 210
160 151 148 141 111 133 187 138 123 198 224 232 201 159 177 195 202 208 221 224 218 218 229 249 257 239 205 198 197 203 221 234 243 250 254 257 257 259 262 263 262 262 262 266 269 273 278 280 282 288 291 290 289 290 291 290 287 284 283 285 284 280 278 274 269 266 261 256 256 255 253 250 247 242 238 234 232 230 229 225 220 215 214 214 213 212
159 153 142 121 118 130 158 163 183 221 251 269 279 169 192 203 199 203 230 239 223 210 220 233 240 239 231 222 206 204 231 246 254 257 256 256 257 257 257 258 259 260 264 268 272 274 276 275 277 282 284 284 283 282 284 286 285 287 291 291 289 285 279 274 271 269 265 260 256 254 252 250 247 243 240 236 233 230 225 220 216 214 214 214 213 211
163 160 150 149 161 144 149 192 235 320 309 264 244 208 190 186 172 180 224 246 223 205 216 226 235 242 238 224 202 193 233 260 271 263 256 252 253 253 253 258 262 264 266 270 272 274 276 276 278 281 280 279 278 278 282 286 287 291 294 293 292 290 283 281 280 274 267 263 261 258 255 253 250 246 241 237 232 226 222 219 217 217 217 215 213 211
172 169 164 171 193 106 121 197 265 272 256 246 219 154 153 156 154 155 191 250 232 206 210 219 229 236 231 200 171 174 205 251 272 263 259 256 253 252 253 256 260 264 268 271 273 275 276 278 278 278 277 276 277 277 277 280 282 284 287 288 289 289 286 287 285 274 267 265 263 261 258 255 252 249 244 239 234 227 223 222 222 221 220 218 216 214
104 132 149 155 157 139 156 190 202 216 242 239 148 134 150 150 143 121 142 260 247 190 196 210 222 230 220 170 165 169 173 218 240 252 257 258 257 255 257 259 261 263 265 266 268 268 269 272 272 272 274 272 272 272 271 273 276 278 281 283 283 286 287 285 282 275 272 269 265 263 261 257 254 251 247 244 239 234 231 230 228 226 222 219 218 216
120 124 142 152 170 181 184 198 212 234 246 214 161 157 149 144 134 111 177 254 210 159 188 203 212 222 211 181 176 174 178 206 230 248 254 259 263 259 258 256 249 249 249 250 255 255 256 263 265 269 275 273 272 275 273 275 278 278 281 281 278 282 285 283 282 278 273 269 263 260 260 258 256 253 250 247 244 240 238 235 232 228 224 220 218 217
124 154 179 174 181 185 186 204 247 259 230 200 168 154 143 136 132 149 210 230 140 161 191 199 203 215 210 190 184 192 210 221 236 249 254 262 268 250 234 220 215 219 226 230 239 244 245 256 264 272 282 282 281 282 279 283 290 293 304 309 304 307 308 301 296 288 281 277 270 265 262 259 258 257 254 250 246 243 240 237 233 229 225 221 219 217
162 176 191 177 168 168 180 197 264 268 216 154 143 153 149 141 178 208 196 159 137 168 190 196 202 212 208 195 195 209 226 235 243 249 251 257 256 232 208 205 209 213 221 222 227 237 241 250 261 265 269 266 256 249 49 45 33 25 20 9 355 346 335 322 310 298 289 283 277 273 269 264 262 260 258 254 250 245 242 238 233 230 226 223 221 219
173 168 185 190 161 140 167 178 215 262 194 134 128 148 168 176 211 181 151 146 171 170 179 194 204 208 202 201 209 220 231 239 240 241 243 243 239 225 214 218 221 223 226 221 223 232 235 238 237 219 197 177 152 110 61 40 21 12 7 353 341 334 323 311 300 290 284 278 275 274 271 268 265 261 259 256 253 249 245 240 235 230 227 224 223 221
178 173 184 198 181 166 188 193 199 269 158 144 142 172 204 194 177 159 152 161 177 168 165 176 188 194 194 199 206 212 220 225 222 221 221 220 219 215 212 218 224 226 226 222 222 228 227 214 196 178 170 163 139 57 15 9 2 0 355 344 337 331 320 310 300 290 284 278 275 273 271 269 266 262 259 256 253 249 245 240 235 231 227 225 223 223
198 191 172 183 190 183 204 208 193 82 162 165 164 182 188 185 176 166 166 164 166 168 165 164 169 176 182 187 193 200 206 207 202 200 200 199 197 196 199 210 221 229 235 230 225 224 211 190 180 176 180 181 54 351 351 354 352 352 349 342 336 329 319 312 305 297 289 283 279 276 273 271 267 263 260 257 253 250 246 241 236 231 228 226 224 224
205 185 140 143 200 236 273 237 191 103 176 185 187 184 184 187 187 175 174 172 172 175 172 168 172 174 176 184 193 196 198 197 193 194 194 189 187 191 198 209 223 234 242 239 227 214 196 186 186 191 199 223 283 313 339 345 343 346 347 340 334 327 318 312 305 298 292 286 282 280 276 272 269 265 262 258 255 253 249 245 240 234 230 227 225 225
221 183 152 130 171 198 235 222 190 179 191 191 193 192 187 190 191 182 182 186 184 181 177 176 180 182 180 184 188 191 195 195 191 192 191 189 192 197 198 206 222 232 238 240 228 207 194 193 198 204 212 238 268 298 323 330 332 336 337 333 329 322 316 312 306 300 294 287 282 279 277 276 275 270 266 262 257 253 249 245 241 237 233 230 228 226
194 181 178 176 175 189 217 213 176 183 196 192 193 193 190 192 193 187 186 189 186 184 184 185 187 188 187 188 189 192 197 198 197 199 199 199 203 206 205 214 225 230 235 234 222 208 202 204 209 214 227 247 264 284 302 311 320 323 320 321 319 314 312 311 307 303 299 293 287 282 278 279 279 275 272 268 263 258 253 248 243 239 237 235 233 232
131 158 184 179 165 202 252 253 134 136 196 204 199 197 195 196 196 191 189 190 189 190 192 192 191 191 192 194 196 199 203 204 204 206 207 209 212 214 217 223 227 231 234 227 215 210 210 213 218 224 235 249 260 275 290 301 306 307 305 304 302 301 303 304 304 303 301 297 294 290 286 283 281 279 276 271 267 263 259 253 249 245 241 239 237 236
138 169 187 156 168 214 229 171 156 156 195 208 200 198 199 201 200 197 195 196 198 199 199 198 197 196 196 197 200 204 208 210 209 210 214 217 220 222 224 226 226 229 228 219 212 212 215 219 224 230 237 248 259 270 280 288 289 290 290 289 289 292 295 297 301 303 301 298 296 292 287 285 282 280 277 273 269 265 261 256 252 248 244 240 237 236
180 184 174 169 201 217 188 164 173 186 205 203 198 197 199 202 204 204 206 208 210 209 206 205 205 203 201 201 203 206 209 211 213 216 220 222 223 223 220 217 217 217 215 212 211 215 220 224 227 233 240 248 255 262 267 269 271 274 275 278 284 288 291 294 298 299 298 297 293 287 282 278 276 276 275 273 270 266 262 258 254 250 246 242 239 237